Location: Beneden-Haastrecht
(52.0012°N, 4.7557°E)
Time: 11:50:27
(UTC+00:00)

Cosmos 1709 Rocket - Pass Details

Date: 24 October 2020
Orbit: 949 x 1001 km, 82.9° (Epoch: 24 November)

Event Time Altitude Azimuth Distance (km) Brightness Sun altitude
Rises 18:14:06 0° 352° (N) 3,719 7.2 -17.0°
Reaches altitude 10° 18:16:47 10° 359° (N) 2,772 6.4 -17.4°
Maximum altitude 18:22:49 42° 70° (ENE) 1,392 4.4 -18.4°
Enters shadow 18:25:52 26° 123° (ESE) 1,853 5.0 -18.8°
